Time,TemperatureF,DewpointF,PressureIn,WindDirection,WindDirectionDegrees,WindSpeedMPH,WindSpeedGustMPH,Humidity,HourlyPrecipIn,Conditions,Clouds,dailyrainin,SoftwareType,DateUTC
2013-03-23 00:00:00,24.9,20.5,30.12,West,267,2.0,6.0,83,0.00,,---,0.00,VWS V13.01,2013-03-23 04:00:00,
2013-03-23 00:02:00,24.9,20.8,30.11,West,267,4.0,5.0,84,0.00,,---,0.00,VWS V13.01,2013-03-23 04:02:00,
2013-03-23 00:04:00,24.9,20.8,30.11,West,267,4.0,6.0,84,0.00,,---,0.00,VWS V13.01,2013-03-23 04:04:00,
2013-03-23 00:09:00,24.9,20.8,30.11,West,267,4.0,6.0,84,0.00,,---,0.00,VWS V13.01,2013-03-23 04:09:00,
2013-03-23 00:14:00,24.8,20.7,30.11,West,267,0.0,6.0,84,0.00,,---,0.00,VWS V13.01,2013-03-23 04:14:00,
2013-03-23 00:19:00,24.8,20.7,30.11,West,267,0.0,6.0,84,0.00,,---,0.00,VWS V13.01,2013-03-23 04:19:00,
2013-03-23 00:25:00,24.8,20.7,30.11,West,267,0.0,6.0,84,0.00,,---,0.00,VWS V13.01,2013-03-23 04:25:00,
2013-03-23 00:30:00,24.8,20.7,30.11,West,267,0.0,6.0,84,0.00,,---,0.00,VWS V13.01,2013-03-23 04:30:00,
2013-03-23 00:35:00,24.8,20.7,30.11,West,267,0.0,0.0,84,0.00,,---,0.00,VWS V13.01,2013-03-23 04:35:00,
2013-03-23 00:40:00,25.0,20.9,30.11,West,267,0.0,3.0,84,0.00,,---,0.00,VWS V13.01,2013-03-23 04:40:00,
2013-03-23 00:47:00,25.0,20.9,30.11,West,267,0.0,3.0,84,0.00,,---,0.00,VWS V13.01,2013-03-23 04:47:00,
2013-03-23 00:52:00,24.9,20.8,30.11,West,267,0.0,3.0,84,0.00,,---,0.00,VWS V13.01,2013-03-23 04:52:00,
2013-03-23 00:57:00,24.8,20.9,30.11,West,267,0.0,3.0,85,0.00,,---,0.00,VWS V13.01,2013-03-23 04:57:00,
2013-03-23 01:02:00,24.7,20.8,30.11,West,267,0.0,1.0,85,0.00,,---,0.00,VWS V13.01,2013-03-23 05:02:00,
2013-03-23 01:07:00,24.7,20.8,30.11,West,267,0.0,3.0,85,0.00,,---,0.00,VWS V13.01,2013-03-23 05:07:00,
2013-03-23 01:13:00,24.7,20.8,30.11,West,267,0.0,3.0,85,0.00,,---,0.00,VWS V13.01,2013-03-23 05:13:00,
2013-03-23 01:18:00,24.7,20.8,30.11,West,267,0.0,3.0,85,0.00,,---,0.00,VWS V13.01,2013-03-23 05:18:00,
2013-03-23 01:24:00,24.7,20.8,30.11,West,267,0.0,3.0,85,0.00,,---,0.00,VWS V13.01,2013-03-23 05:24:00,
2013-03-23 01:29:00,24.5,20.9,30.11,West,267,0.0,3.0,86,0.00,,---,0.00,VWS V13.01,2013-03-23 05:29:00,
2013-03-23 01:34:00,24.4,20.8,30.11,West,267,0.0,1.0,86,0.00,,---,0.00,VWS V13.01,2013-03-23 05:34:00,
2013-03-23 01:39:00,24.4,20.8,30.10,West,267,0.0,1.0,86,0.00,,---,0.00,VWS V13.01,2013-03-23 05:39:00,
2013-03-23 01:45:00,24.4,20.8,30.10,West,267,0.0,1.0,86,0.00,,---,0.00,VWS V13.01,2013-03-23 05:45:00,
2013-03-23 01:50:00,24.3,20.7,30.10,West,267,0.0,1.0,86,0.00,,---,0.00,VWS V13.01,2013-03-23 05:50:00,
2013-03-23 01:55:00,24.3,20.7,30.10,West,267,0.0,1.0,86,0.00,,---,0.00,VWS V13.01,2013-03-23 05:55:00,
2013-03-23 02:01:00,24.2,20.6,30.10,West,267,0.0,0.0,86,0.00,,---,0.00,VWS V13.01,2013-03-23 06:01:00,
2013-03-23 02:07:00,24.1,20.5,30.10,West,267,0.0,0.0,86,0.00,,---,0.00,VWS V13.01,2013-03-23 06:07:00,
2013-03-23 02:12:00,24.2,20.9,30.10,West,267,0.0,0.0,87,0.00,,---,0.00,VWS V13.01,2013-03-23 06:12:00,
2013-03-23 02:17:00,24.2,20.9,30.10,West,267,0.0,0.0,87,0.00,,---,0.00,VWS V13.01,2013-03-23 06:17:00,
2013-03-23 02:22:00,24.1,20.8,30.11,West,267,0.0,0.0,87,0.00,,---,0.00,VWS V13.01,2013-03-23 06:22:00,
2013-03-23 02:27:00,24.0,20.7,30.10,West,267,0.0,1.0,87,0.00,,---,0.00,VWS V13.01,2013-03-23 06:27:00,
2013-03-23 02:32:00,23.9,20.6,30.10,West,267,0.0,0.0,87,0.00,,---,0.00,VWS V13.01,2013-03-23 06:32:00,
2013-03-23 02:37:00,23.9,20.6,30.10,West,267,0.0,0.0,87,0.00,,---,0.00,VWS V13.01,2013-03-23 06:37:00,
2013-03-23 02:42:00,23.9,20.9,30.10,West,267,0.0,0.0,88,0.00,,---,0.00,VWS V13.01,2013-03-23 06:42:00,
2013-03-23 02:48:00,23.8,20.8,30.10,West,267,0.0,0.0,88,0.00,,---,0.00,VWS V13.01,2013-03-23 06:48:00,
2013-03-23 02:53:00,23.7,20.7,30.10,West,267,0.0,0.0,88,0.00,,---,0.00,VWS V13.01,2013-03-23 06:53:00,
2013-03-23 02:58:00,23.6,20.6,30.10,West,267,0.0,0.0,88,0.00,,---,0.00,VWS V13.01,2013-03-23 06:58:00,
2013-03-23 03:03:00,23.6,20.6,30.10,West,267,0.0,0.0,88,0.00,,---,0.00,VWS V13.01,2013-03-23 07:03:00,
2013-03-23 03:09:00,23.6,20.6,30.10,West,267,0.0,0.0,88,0.00,,---,0.00,VWS V13.01,2013-03-23 07:09:00,
2013-03-23 03:14:00,23.6,20.8,30.10,West,267,0.0,0.0,89,0.00,,---,0.00,VWS V13.01,2013-03-23 07:14:00,
2013-03-23 03:19:00,23.7,20.7,30.10,West,267,0.0,0.0,88,0.00,,---,0.00,VWS V13.01,2013-03-23 07:19:00,
2013-03-23 03:24:00,23.6,20.8,30.10,West,267,0.0,0.0,89,0.00,,---,0.00,VWS V13.01,2013-03-23 07:24:00,
2013-03-23 03:29:00,23.6,20.8,30.10,West,267,0.0,0.0,89,0.00,,---,0.00,VWS V13.01,2013-03-23 07:29:00,
2013-03-23 03:35:00,23.6,20.8,30.10,West,267,0.0,0.0,89,0.00,,---,0.00,VWS V13.01,2013-03-23 07:35:00,
2013-03-23 03:40:00,23.5,20.7,30.10,West,267,0.0,0.0,89,0.00,,---,0.00,VWS V13.01,2013-03-23 07:40:00,
2013-03-23 03:45:00,23.6,20.8,30.09,West,267,0.0,0.0,89,0.00,,---,0.00,VWS V13.01,2013-03-23 07:45:00,
2013-03-23 03:50:00,23.5,20.7,30.10,West,267,0.0,0.0,89,0.00,,---,0.00,VWS V13.01,2013-03-23 07:50:00,
2013-03-23 03:55:00,23.5,20.7,30.10,West,267,0.0,0.0,89,0.00,,---,0.00,VWS V13.01,2013-03-23 07:55:00,
2013-03-23 04:00:00,23.5,20.7,30.09,West,267,0.0,0.0,89,0.00,,---,0.00,VWS V13.01,2013-03-23 08:00:00,
2013-03-23 04:07:00,23.5,20.7,30.10,West,267,0.0,0.0,89,0.00,,---,0.00,VWS V13.01,2013-03-23 08:07:00,
2013-03-23 04:12:00,23.6,20.8,30.09,West,267,0.0,0.0,89,0.00,,---,0.00,VWS V13.01,2013-03-23 08:12:00,
2013-03-23 04:17:00,23.6,20.8,30.09,West,267,0.0,0.0,89,0.00,,---,0.00,VWS V13.01,2013-03-23 08:17:00,
2013-03-23 04:22:00,23.7,20.9,30.09,West,267,0.0,0.0,89,0.00,,---,0.00,VWS V13.01,2013-03-23 08:22:00,
2013-03-23 04:27:00,23.7,20.9,30.09,West,267,0.0,0.0,89,0.00,,---,0.00,VWS V13.01,2013-03-23 08:27:00,
2013-03-23 04:32:00,23.8,21.0,30.09,West,267,0.0,0.0,89,0.00,,---,0.00,VWS V13.01,2013-03-23 08:32:00,
2013-03-23 04:38:00,23.8,21.0,30.09,West,267,0.0,0.0,89,0.00,,---,0.00,VWS V13.01,2013-03-23 08:38:00,
2013-03-23 04:43:00,23.9,21.1,30.09,West,267,0.0,0.0,89,0.00,,---,0.00,VWS V13.01,2013-03-23 08:43:00,
2013-03-23 04:48:00,23.9,21.1,30.09,West,267,0.0,0.0,89,0.00,,---,0.00,VWS V13.01,2013-03-23 08:48:00,
2013-03-23 04:53:00,23.9,21.1,30.09,West,267,0.0,0.0,89,0.00,,---,0.00,VWS V13.01,2013-03-23 08:53:00,
2013-03-23 04:59:00,23.9,21.1,30.09,West,267,0.0,0.0,89,0.00,,---,0.00,VWS V13.01,2013-03-23 08:59:00,
2013-03-23 05:04:00,24.0,21.2,30.09,West,267,0.0,2.0,89,0.00,,---,0.00,VWS V13.01,2013-03-23 09:04:00,
2013-03-23 05:09:00,24.2,21.2,30.09,West,267,0.0,2.0,88,0.00,,---,0.00,VWS V13.01,2013-03-23 09:09:00,
2013-03-23 05:15:00,24.3,21.3,30.10,West,267,0.0,2.0,88,0.00,,---,0.00,VWS V13.01,2013-03-23 09:15:00,
2013-03-23 05:20:00,24.4,21.4,30.09,West,267,0.0,2.0,88,0.00,,---,0.00,VWS V13.01,2013-03-23 09:20:00,
2013-03-23 05:25:00,24.4,21.1,30.08,West,267,0.0,2.0,87,0.00,,---,0.00,VWS V13.01,2013-03-23 09:25:00,
2013-03-23 05:30:00,24.5,21.2,30.08,West,267,0.0,2.0,87,0.00,,---,0.00,VWS V13.01,2013-03-23 09:30:00,
2013-03-23 05:35:00,24.5,21.2,30.08,West,267,2.0,2.0,87,0.00,,---,0.00,VWS V13.01,2013-03-23 09:35:00,
2013-03-23 05:41:00,24.5,21.2,30.08,West,267,0.0,2.0,87,0.00,,---,0.00,VWS V13.01,2013-03-23 09:41:00,
2013-03-23 05:46:00,24.5,21.2,30.08,West,267,0.0,2.0,87,0.00,,---,0.00,VWS V13.01,2013-03-23 09:46:00,
2013-03-23 05:51:00,24.4,21.1,30.08,West,267,0.0,2.0,87,0.00,,---,0.00,VWS V13.01,2013-03-23 09:51:00,
2013-03-23 05:56:00,24.5,21.2,30.08,West,267,3.0,4.0,87,0.00,,---,0.00,VWS V13.01,2013-03-23 09:56:00,
2013-03-23 06:01:00,24.5,20.9,30.08,West,267,3.0,4.0,86,0.00,,---,0.00,VWS V13.01,2013-03-23 10:01:00,
2013-03-23 06:06:00,24.6,21.0,30.08,West,267,4.0,5.0,86,0.00,,---,0.00,VWS V13.01,2013-03-23 10:06:00,
2013-03-23 06:12:00,24.7,21.1,30.08,West,267,1.0,7.0,86,0.00,,---,0.00,VWS V13.01,2013-03-23 10:12:00,
2013-03-23 06:17:00,24.7,21.1,30.08,West,267,2.0,7.0,86,0.00,,---,0.00,VWS V13.01,2013-03-23 10:17:00,
2013-03-23 06:22:00,24.7,21.1,30.08,West,267,4.0,7.0,86,0.00,,---,0.00,VWS V13.01,2013-03-23 10:22:00,
2013-03-23 06:27:00,24.7,21.1,30.08,West,267,2.0,7.0,86,0.00,,---,0.00,VWS V13.01,2013-03-23 10:27:00,
2013-03-23 06:32:00,24.7,21.1,30.08,West,267,6.0,7.0,86,0.00,,---,0.00,VWS V13.01,2013-03-23 10:32:00,
2013-03-23 06:38:00,24.8,21.2,30.08,West,267,3.0,7.0,86,0.00,,---,0.00,VWS V13.01,2013-03-23 10:38:00,
2013-03-23 06:43:00,24.8,21.2,30.08,West,267,6.0,7.0,86,0.00,,---,0.00,VWS V13.01,2013-03-23 10:43:00,
2013-03-23 06:48:00,24.8,21.2,30.08,West,267,6.0,7.0,86,0.00,,---,0.00,VWS V13.01,2013-03-23 10:48:00,
2013-03-23 06:53:00,24.8,21.2,30.08,West,267,5.0,7.0,86,0.00,,---,0.00,VWS V13.01,2013-03-23 10:53:00,
2013-03-23 06:58:00,24.8,20.9,30.08,West,267,5.0,7.0,85,0.00,,---,0.00,VWS V13.01,2013-03-23 10:58:00,
2013-03-23 07:03:00,24.8,21.2,30.09,West,267,5.0,6.0,86,0.00,,---,0.00,VWS V13.01,2013-03-23 11:03:00,
2013-03-23 07:09:00,24.8,21.2,30.09,West,267,5.0,7.0,86,0.00,,---,0.00,VWS V13.01,2013-03-23 11:09:00,
2013-03-23 07:14:00,24.7,21.1,30.08,West,267,6.0,7.0,86,0.00,,---,0.00,VWS V13.01,2013-03-23 11:14:00,
2013-03-23 07:19:00,24.8,21.2,30.09,West,267,4.0,8.0,86,0.00,,---,0.00,VWS V13.01,2013-03-23 11:19:00,
2013-03-23 07:24:00,24.8,21.2,30.09,West,267,5.0,8.0,86,0.00,,---,0.00,VWS V13.01,2013-03-23 11:24:00,
2013-03-23 07:30:00,24.7,21.1,30.09,West,267,5.0,8.0,86,0.00,,---,0.00,VWS V13.01,2013-03-23 11:30:00,
2013-03-23 07:35:00,24.8,21.2,30.09,West,267,4.0,7.0,86,0.00,,---,0.00,VWS V13.01,2013-03-23 11:35:00,
2013-03-23 07:40:00,25.0,21.4,30.09,West,267,5.0,7.0,86,0.00,,---,0.00,VWS V13.01,2013-03-23 11:40:00,
2013-03-23 07:45:00,25.0,21.4,30.09,West,267,5.0,8.0,86,0.00,,---,0.00,VWS V13.01,2013-03-23 11:45:00,
2013-03-23 07:50:00,25.0,21.4,30.09,West,267,7.0,8.0,86,0.00,,---,0.00,VWS V13.01,2013-03-23 11:50:00,
2013-03-23 07:56:00,25.1,21.5,30.09,West,267,6.0,8.0,86,0.00,,---,0.00,VWS V13.01,2013-03-23 11:56:00,
2013-03-23 08:02:00,25.2,21.6,30.09,West,267,5.0,7.0,86,0.00,,---,0.00,VWS V13.01,2013-03-23 12:02:00,
2013-03-23 08:08:00,25.2,21.6,30.09,West,267,7.0,9.0,86,0.00,,---,0.00,VWS V13.01,2013-03-23 12:08:00,
2013-03-23 08:13:00,25.0,21.4,30.09,West,267,6.0,9.0,86,0.00,,---,0.00,VWS V13.01,2013-03-23 12:13:00,
2013-03-23 08:18:00,25.0,21.4,30.09,West,268,6.0,9.0,86,0.00,,---,0.00,VWS V13.01,2013-03-23 12:18:00,
2013-03-23 08:24:00,25.1,21.5,30.09,West,269,7.0,9.0,86,0.00,,---,0.00,VWS V13.01,2013-03-23 12:24:00,
2013-03-23 08:29:00,25.2,21.6,30.09,West,269,6.0,9.0,86,0.00,,---,0.00,VWS V13.01,2013-03-23 12:29:00,
2013-03-23 08:34:00,25.5,21.6,30.10,West,270,6.0,9.0,85,0.00,,---,0.00,VWS V13.01,2013-03-23 12:34:00,
2013-03-23 08:40:00,25.5,21.6,30.09,West,270,7.0,9.0,85,0.00,,---,0.00,VWS V13.01,2013-03-23 12:40:00,
2013-03-23 08:45:00,25.5,21.6,30.10,West,271,7.0,9.0,85,0.00,,---,0.00,VWS V13.01,2013-03-23 12:45:00,
2013-03-23 08:50:00,25.6,21.7,30.10,West,271,8.0,9.0,85,0.00,,---,0.00,VWS V13.01,2013-03-23 12:50:00,
2013-03-23 08:55:00,25.7,21.8,30.10,West,271,7.0,9.0,85,0.00,,---,0.00,VWS V13.01,2013-03-23 12:55:00,
2013-03-23 09:00:00,25.8,21.9,30.10,West,271,7.0,7.0,85,0.00,,---,0.00,VWS V13.01,2013-03-23 13:00:00,
2013-03-23 09:06:00,26.1,21.9,30.10,West,271,4.0,7.0,84,0.00,,---,0.00,VWS V13.01,2013-03-23 13:06:00,
2013-03-23 09:11:00,26.2,22.0,30.10,West,271,6.0,8.0,84,0.00,,---,0.00,VWS V13.01,2013-03-23 13:11:00,
2013-03-23 09:16:00,26.4,22.2,30.11,West,271,5.0,8.0,84,0.00,,---,0.00,VWS V13.01,2013-03-23 13:16:00,
2013-03-23 09:21:00,26.5,22.3,30.10,West,271,6.0,8.0,84,0.00,,---,0.00,VWS V13.01,2013-03-23 13:21:00,
2013-03-23 09:26:00,26.6,22.4,30.11,West,271,6.0,8.0,84,0.00,,---,0.00,VWS V13.01,2013-03-23 13:26:00,
2013-03-23 09:32:00,26.7,22.2,30.11,West,271,6.0,8.0,83,0.00,,---,0.00,VWS V13.01,2013-03-23 13:32:00,
2013-03-23 09:37:00,26.7,22.2,30.11,West,267,6.0,9.0,83,0.00,,---,0.00,VWS V13.01,2013-03-23 13:37:00,
2013-03-23 09:42:00,26.9,22.4,30.11,WSW,258,5.0,9.0,83,0.00,,---,0.00,VWS V13.01,2013-03-23 13:42:00,
2013-03-23 09:47:00,26.9,22.4,30.11,West,263,7.0,9.0,83,0.00,,---,0.00,VWS V13.01,2013-03-23 13:47:00,
2013-03-23 09:52:00,27.0,22.5,30.11,West,263,6.0,9.0,83,0.00,,---,0.00,VWS V13.01,2013-03-23 13:52:00,
2013-03-23 09:58:00,27.2,22.7,30.11,West,268,8.0,9.0,83,0.00,,---,0.00,VWS V13.01,2013-03-23 13:58:00,
2013-03-23 10:03:00,27.4,22.9,30.11,West,267,6.0,7.0,83,0.00,,---,0.00,VWS V13.01,2013-03-23 14:03:00,
2013-03-23 10:08:00,27.6,22.8,30.11,West,265,7.0,9.0,82,0.00,,---,0.00,VWS V13.01,2013-03-23 14:08:00,
2013-03-23 10:13:00,27.7,22.9,30.12,WSW,257,7.0,12.0,82,0.00,,---,0.00,VWS V13.01,2013-03-23 14:13:00,
2013-03-23 10:18:00,27.9,23.1,30.12,WSW,258,3.0,12.0,82,0.00,,---,0.00,VWS V13.01,2013-03-23 14:18:00,
2013-03-23 10:23:00,28.1,23.3,30.12,West,269,5.0,12.0,82,0.00,,---,0.00,VWS V13.01,2013-03-23 14:23:00,
2013-03-23 10:29:00,28.2,23.4,30.12,West,269,4.0,12.0,82,0.00,,---,0.00,VWS V13.01,2013-03-23 14:29:00,
2013-03-23 10:34:00,28.2,23.1,30.12,West,269,2.0,6.0,81,0.00,,---,0.00,VWS V13.01,2013-03-23 14:34:00,
2013-03-23 10:39:00,28.4,23.3,30.12,West,269,6.0,7.0,81,0.00,,---,0.00,VWS V13.01,2013-03-23 14:39:00,
2013-03-23 10:44:00,28.5,23.4,30.12,WNW,284,5.0,10.0,81,0.00,,---,0.00,VWS V13.01,2013-03-23 14:44:00,
2013-03-23 10:49:00,28.5,23.4,30.12,WNW,296,7.0,10.0,81,0.00,,---,0.00,VWS V13.01,2013-03-23 14:49:00,
2013-03-23 10:54:00,28.7,23.6,30.12,WNW,298,4.0,10.0,81,0.00,,---,0.00,VWS V13.01,2013-03-23 14:54:00,
2013-03-23 11:00:00,28.8,23.7,30.12,NW,309,9.0,13.0,81,0.00,,---,0.00,VWS V13.01,2013-03-23 15:00:00,
2013-03-23 11:05:00,29.0,23.9,30.12,WNW,292,6.0,7.0,81,0.00,,---,0.00,VWS V13.01,2013-03-23 15:05:00,
2013-03-23 11:10:00,29.2,24.1,30.12,WNW,292,4.0,8.0,81,0.00,,---,0.00,VWS V13.01,2013-03-23 15:10:00,
2013-03-23 11:15:00,29.3,23.9,30.12,WNW,292,7.0,8.0,80,0.00,,---,0.00,VWS V13.01,2013-03-23 15:15:00,
2013-03-23 11:20:00,29.4,23.7,30.12,NW,317,7.0,9.0,79,0.00,,---,0.00,VWS V13.01,2013-03-23 15:20:00,
2013-03-23 11:25:00,29.5,23.8,30.12,NW,313,3.0,9.0,79,0.00,,---,0.00,VWS V13.01,2013-03-23 15:25:00,
2013-03-23 11:31:00,29.6,23.9,30.12,NW,313,4.0,5.0,79,0.00,,---,0.00,VWS V13.01,2013-03-23 15:31:00,
2013-03-23 11:36:00,29.8,23.8,30.12,WNW,302,2.0,8.0,78,0.00,,---,0.00,VWS V13.01,2013-03-23 15:36:00,
2013-03-23 11:41:00,29.9,23.9,30.12,NW,323,10.0,12.0,78,0.00,,---,0.00,VWS V13.01,2013-03-23 15:41:00,
2013-03-23 11:46:00,29.9,23.3,30.12,NW,308,3.0,12.0,76,0.00,,---,0.00,VWS V13.01,2013-03-23 15:46:00,
2013-03-23 11:52:00,29.9,23.0,30.12,NW,304,6.0,12.0,75,0.00,,---,0.00,VWS V13.01,2013-03-23 15:52:00,
2013-03-23 11:57:00,29.9,23.0,30.12,WNW,294,7.0,12.0,75,0.00,,---,0.00,VWS V13.01,2013-03-23 15:57:00,
2013-03-23 12:03:00,29.8,23.2,30.13,NW,319,7.0,14.0,76,0.00,,---,0.00,VWS V13.01,2013-03-23 16:03:00,
2013-03-23 12:08:00,29.7,23.1,30.13,NW,311,10.0,14.0,76,0.00,,---,0.00,VWS V13.01,2013-03-23 16:08:00,
2013-03-23 12:13:00,29.7,23.1,30.13,NW,318,9.0,14.0,76,0.00,,---,0.00,VWS V13.01,2013-03-23 16:13:00,
2013-03-23 12:19:00,29.7,23.1,30.12,NW,313,7.0,14.0,76,0.00,,---,0.00,VWS V13.01,2013-03-23 16:19:00,
2013-03-23 12:24:00,29.8,23.5,30.12,NNW,329,7.0,14.0,77,0.00,,---,0.00,VWS V13.01,2013-03-23 16:24:00,
2013-03-23 12:29:00,29.8,23.5,30.13,NW,315,6.0,14.0,77,0.00,,---,0.00,VWS V13.01,2013-03-23 16:29:00,
2013-03-23 12:34:00,29.7,23.4,30.13,NNW,333,7.0,11.0,77,0.00,,---,0.00,VWS V13.01,2013-03-23 16:34:00,
2013-03-23 12:40:00,29.7,23.7,30.13,NW,322,6.0,11.0,78,0.00,,---,0.00,VWS V13.01,2013-03-23 16:40:00,
2013-03-23 12:45:00,29.7,23.7,30.13,NNW,333,8.0,11.0,78,0.00,,---,0.00,VWS V13.01,2013-03-23 16:45:00,
2013-03-23 12:50:00,29.7,23.7,30.13,NW,307,7.0,11.0,78,0.00,,---,0.00,VWS V13.01,2013-03-23 16:50:00,
2013-03-23 12:55:00,29.9,24.2,30.13,NW,309,3.0,11.0,79,0.00,,---,0.00,VWS V13.01,2013-03-23 16:55:00,
2013-03-23 13:00:00,30.1,24.1,30.13,West,277,8.0,11.0,78,0.00,,---,0.00,VWS V13.01,2013-03-23 17:00:00,
2013-03-23 13:05:00,30.1,23.8,30.12,West,277,10.0,13.0,77,0.00,,---,0.00,VWS V13.01,2013-03-23 17:05:00,
2013-03-23 13:10:00,30.2,23.9,30.13,WNW,289,7.0,13.0,77,0.00,,---,0.00,VWS V13.01,2013-03-23 17:10:00,
2013-03-23 13:15:00,30.4,24.1,30.12,WNW,300,8.0,13.0,77,0.00,,---,0.00,VWS V13.01,2013-03-23 17:15:00,
2013-03-23 13:20:00,30.6,24.0,30.12,WNW,303,5.0,13.0,76,0.00,,---,0.00,VWS V13.01,2013-03-23 17:20:00,
2013-03-23 13:26:00,30.8,24.5,30.12,NW,314,4.0,13.0,77,0.00,,---,0.00,VWS V13.01,2013-03-23 17:26:00,
2013-03-23 13:31:00,30.9,23.9,30.12,NW,315,3.0,6.0,75,0.00,,---,0.00,VWS V13.01,2013-03-23 17:31:00,
2013-03-23 13:36:00,31.1,24.4,30.12,WNW,297,6.0,8.0,76,0.00,,---,0.00,VWS V13.01,2013-03-23 17:36:00,
2013-03-23 13:41:00,31.2,24.2,30.12,WNW,286,7.0,8.0,75,0.00,,---,0.00,VWS V13.01,2013-03-23 17:41:00,
2013-03-23 13:47:00,31.2,23.9,30.12,WNW,300,8.0,13.0,74,0.01,,---,0.01,VWS V13.01,2013-03-23 17:47:00,
2013-03-23 13:52:00,31.4,23.8,30.12,WNW,300,6.0,13.0,73,0.01,,---,0.01,VWS V13.01,2013-03-23 17:52:00,
2013-03-23 13:57:00,31.6,23.6,30.12,WNW,302,0.0,13.0,72,0.01,,---,0.01,VWS V13.01,2013-03-23 17:57:00,
2013-03-23 14:02:00,31.7,23.7,30.12,NNW,334,7.0,8.0,72,0.01,,---,0.01,VWS V13.01,2013-03-23 18:02:00,
2013-03-23 14:08:00,31.7,23.4,30.12,NW,309,11.0,11.0,71,0.01,,---,0.01,VWS V13.01,2013-03-23 18:08:00,
2013-03-23 14:13:00,31.5,23.2,30.13,NW,304,7.0,13.0,71,0.01,,---,0.01,VWS V13.01,2013-03-23 18:13:00,
2013-03-23 14:18:00,31.3,22.7,30.13,NW,306,8.0,13.0,70,0.01,,---,0.01,VWS V13.01,2013-03-23 18:18:00,
2013-03-23 14:23:00,31.4,22.8,30.13,WNW,302,6.0,14.0,70,0.01,,---,0.01,VWS V13.01,2013-03-23 18:23:00,
2013-03-23 14:29:00,31.7,23.4,30.13,WNW,302,6.0,14.0,71,0.01,,---,0.01,VWS V13.01,2013-03-23 18:29:00,
2013-03-23 14:34:00,31.6,23.3,30.12,NW,315,10.0,15.0,71,0.01,,---,0.01,VWS V13.01,2013-03-23 18:34:00,
2013-03-23 14:39:00,31.5,22.9,30.12,WNW,292,8.0,15.0,70,0.01,,---,0.01,VWS V13.01,2013-03-23 18:39:00,
2013-03-23 14:45:00,31.7,23.4,30.12,NW,311,6.0,15.0,71,0.01,,---,0.01,VWS V13.01,2013-03-23 18:45:00,
2013-03-23 14:50:00,31.7,23.0,30.12,NNW,341,10.0,16.0,70,0.01,,---,0.01,VWS V13.01,2013-03-23 18:50:00,
2013-03-23 14:55:00,31.6,23.3,30.12,NW,309,12.0,16.0,71,0.01,,---,0.01,VWS V13.01,2013-03-23 18:55:00,
2013-03-23 15:00:00,31.4,23.1,30.12,NW,325,4.0,8.0,71,0.01,,---,0.01,VWS V13.01,2013-03-23 19:00:00,
2013-03-23 15:07:00,31.5,23.2,30.12,WNW,303,0.0,15.0,71,0.00,,---,0.01,VWS V13.01,2013-03-23 19:07:00,
2013-03-23 15:12:00,31.9,23.2,30.12,NNW,328,3.0,15.0,70,0.00,,---,0.01,VWS V13.01,2013-03-23 19:12:00,
2013-03-23 15:17:00,32.0,23.3,30.12,NW,319,6.0,15.0,70,0.00,,---,0.01,VWS V13.01,2013-03-23 19:17:00,
2013-03-23 15:22:00,31.9,22.5,30.12,WNW,296,6.0,15.0,68,0.00,,---,0.01,VWS V13.01,2013-03-23 19:22:00,
2013-03-23 15:27:00,31.9,23.2,30.12,NW,304,6.0,15.0,70,0.00,,---,0.01,VWS V13.01,2013-03-23 19:27:00,
2013-03-23 15:33:00,32.1,23.4,30.12,WNW,298,9.0,9.0,70,0.00,,---,0.01,VWS V13.01,2013-03-23 19:33:00,
2013-03-23 15:38:00,32.1,22.8,30.12,NW,321,0.0,11.0,68,0.00,,---,0.01,VWS V13.01,2013-03-23 19:38:00,
2013-03-23 15:43:00,32.3,22.9,30.12,NNW,335,6.0,11.0,68,0.00,,---,0.01,VWS V13.01,2013-03-23 19:43:00,
2013-03-23 15:48:00,32.3,22.9,30.12,NW,323,6.0,15.0,68,0.00,,---,0.01,VWS V13.01,2013-03-23 19:48:00,
2013-03-23 15:53:00,32.3,22.6,30.13,NW,319,10.0,15.0,67,0.00,,---,0.01,VWS V13.01,2013-03-23 19:53:00,
2013-03-23 15:59:00,32.4,22.7,30.12,NNW,329,7.0,15.0,67,0.00,,---,0.01,VWS V13.01,2013-03-23 19:59:00,
2013-03-23 16:04:00,32.4,22.7,30.13,NNW,333,10.0,13.0,67,0.00,,---,0.01,VWS V13.01,2013-03-23 20:04:00,
2013-03-23 16:09:00,32.4,23.0,30.12,NW,314,9.0,13.0,68,0.00,,---,0.01,VWS V13.01,2013-03-23 20:09:00,
2013-03-23 16:14:00,32.4,23.0,30.12,WNW,296,11.0,15.0,68,0.00,,---,0.01,VWS V13.01,2013-03-23 20:14:00,
2013-03-23 16:20:00,32.4,22.7,30.12,NW,323,5.0,15.0,67,0.00,,---,0.01,VWS V13.01,2013-03-23 20:20:00,
2013-03-23 16:25:00,32.4,22.7,30.12,NW,304,8.0,15.0,67,0.00,,---,0.01,VWS V13.01,2013-03-23 20:25:00,
2013-03-23 16:30:00,32.3,23.3,30.12,WNW,294,11.0,15.0,69,0.00,,---,0.01,VWS V13.01,2013-03-23 20:30:00,
2013-03-23 16:35:00,32.3,22.9,30.12,NW,310,7.0,15.0,68,0.00,,---,0.01,VWS V13.01,2013-03-23 20:35:00,
2013-03-23 16:41:00,32.5,23.1,30.12,NW,319,10.0,16.0,68,0.00,,---,0.01,VWS V13.01,2013-03-23 20:41:00,
2013-03-23 16:46:00,33.3,23.5,30.12,NW,313,10.0,16.0,67,0.00,,---,0.01,VWS V13.01,2013-03-23 20:46:00,
2013-03-23 16:52:00,33.6,23.1,30.12,NW,309,12.0,16.0,65,0.00,,---,0.01,VWS V13.01,2013-03-23 20:52:00,
2013-03-23 16:58:00,33.0,22.9,30.12,NNW,330,9.0,16.0,66,0.00,,---,0.01,VWS V13.01,2013-03-23 20:58:00,
2013-03-23 17:03:00,33.0,23.2,30.12,NW,306,6.0,12.0,67,0.00,,---,0.01,VWS V13.01,2013-03-23 21:03:00,
2013-03-23 17:09:00,33.3,23.2,30.12,NW,313,8.0,15.0,66,0.00,,---,0.01,VWS V13.01,2013-03-23 21:09:00,
2013-03-23 17:14:00,33.1,23.0,30.12,North,351,7.0,15.0,66,0.00,,---,0.01,VWS V13.01,2013-03-23 21:14:00,
2013-03-23 17:19:00,33.3,22.5,30.12,North,5,10.0,15.0,64,0.00,,---,0.01,VWS V13.01,2013-03-23 21:19:00,
2013-03-23 17:24:00,33.0,22.2,30.12,WNW,299,5.0,15.0,64,0.00,,---,0.01,VWS V13.01,2013-03-23 21:24:00,
2013-03-23 17:29:00,32.6,22.5,30.12,NW,321,8.0,16.0,66,0.00,,---,0.01,VWS V13.01,2013-03-23 21:29:00,
2013-03-23 17:35:00,32.8,22.7,30.12,NNW,329,12.0,13.0,66,0.00,,---,0.01,VWS V13.01,2013-03-23 21:35:00,
2013-03-23 17:40:00,32.8,22.7,30.12,NW,325,9.0,13.0,66,0.00,,---,0.01,VWS V13.01,2013-03-23 21:40:00,
2013-03-23 17:45:00,33.1,23.0,30.12,NNW,328,2.0,13.0,66,0.00,,---,0.01,VWS V13.01,2013-03-23 21:45:00,
2013-03-23 17:50:00,33.5,23.7,30.12,WNW,292,10.0,13.0,67,0.00,,---,0.01,VWS V13.01,2013-03-23 21:50:00,
2013-03-23 17:55:00,33.4,24.0,30.12,NW,305,7.0,13.0,68,0.00,,---,0.01,VWS V13.01,2013-03-23 21:55:00,
2013-03-23 18:02:00,33.0,23.2,30.12,WNW,292,12.0,15.0,67,0.00,,---,0.01,VWS V13.01,2013-03-23 22:02:00,
2013-03-23 18:07:00,32.4,22.7,30.13,NW,305,8.0,15.0,67,0.00,,---,0.01,VWS V13.01,2013-03-23 22:07:00,
2013-03-23 18:12:00,32.0,22.3,30.13,NW,317,11.0,15.0,67,0.00,,---,0.01,VWS V13.01,2013-03-23 22:12:00,
2013-03-23 18:17:00,31.8,22.5,30.13,WNW,293,10.0,15.0,68,0.00,,---,0.01,VWS V13.01,2013-03-23 22:17:00,
2013-03-23 18:22:00,31.8,22.5,30.13,WNW,296,9.0,15.0,68,0.00,,---,0.01,VWS V13.01,2013-03-23 22:22:00,
2013-03-23 18:28:00,31.9,22.5,30.13,WNW,288,14.0,15.0,68,0.00,,---,0.01,VWS V13.01,2013-03-23 22:28:00,
2013-03-23 18:33:00,32.1,22.8,30.14,NW,306,7.0,12.0,68,0.00,,---,0.01,VWS V13.01,2013-03-23 22:33:00,
2013-03-23 18:38:00,32.0,22.6,30.13,NW,309,9.0,14.0,68,0.00,,---,0.01,VWS V13.01,2013-03-23 22:38:00,
2013-03-23 18:43:00,31.5,22.2,30.13,NW,309,7.0,14.0,68,0.00,,---,0.01,VWS V13.01,2013-03-23 22:43:00,
2013-03-23 18:48:00,31.4,22.4,30.13,WNW,298,7.0,14.0,69,0.00,,---,0.01,VWS V13.01,2013-03-23 22:48:00,
2013-03-23 18:53:00,31.3,22.0,30.13,NW,315,8.0,14.0,68,0.00,,---,0.01,VWS V13.01,2013-03-23 22:53:00,
2013-03-23 18:58:00,31.1,22.1,30.13,NW,316,6.0,14.0,69,0.00,,---,0.01,VWS V13.01,2013-03-23 22:58:00,
2013-03-23 19:04:00,30.9,21.6,30.14,NNW,329,4.0,9.0,68,0.00,,---,0.01,VWS V13.01,2013-03-23 23:04:00,
2013-03-23 19:09:00,30.4,21.5,30.14,WNW,286,8.0,11.0,69,0.00,,---,0.01,VWS V13.01,2013-03-23 23:09:00,
2013-03-23 19:14:00,30.3,21.4,30.14,WNW,293,6.0,12.0,69,0.00,,---,0.01,VWS V13.01,2013-03-23 23:14:00,
2013-03-23 19:19:00,29.8,21.2,30.14,WNW,292,4.0,12.0,70,0.00,,---,0.01,VWS V13.01,2013-03-23 23:19:00,
2013-03-23 19:25:00,29.2,20.6,30.14,WNW,292,5.0,12.0,70,0.00,,---,0.01,VWS V13.01,2013-03-23 23:25:00,
2013-03-23 19:30:00,28.0,19.8,30.13,WNW,293,5.0,12.0,71,0.00,,---,0.01,VWS V13.01,2013-03-23 23:30:00,
2013-03-23 19:35:00,27.8,20.3,30.13,WNW,293,3.0,6.0,73,0.00,,---,0.01,VWS V13.01,2013-03-23 23:35:00,
2013-03-23 19:40:00,27.6,20.1,30.14,WNW,293,3.0,6.0,73,0.00,,---,0.01,VWS V13.01,2013-03-23 23:40:00,
2013-03-23 19:45:00,27.4,20.2,30.14,WNW,292,2.0,7.0,74,0.00,,---,0.01,VWS V13.01,2013-03-23 23:45:00,
2013-03-23 19:51:00,26.9,20.4,30.14,WNW,293,1.0,7.0,76,0.00,,---,0.01,VWS V13.01,2013-03-23 23:51:00,
2013-03-23 19:56:00,26.9,21.0,30.14,WNW,293,0.0,7.0,78,0.00,,---,0.01,VWS V13.01,2013-03-23 23:56:00,
2013-03-23 20:02:00,27.1,21.2,30.15,WNW,292,0.0,2.0,78,0.00,,---,0.01,VWS V13.01,2013-03-24 00:02:00,
2013-03-23 20:07:00,26.8,21.2,30.14,WNW,293,0.0,2.0,79,0.00,,---,0.01,VWS V13.01,2013-03-24 00:07:00,
2013-03-23 20:13:00,26.4,21.1,30.14,WNW,293,1.0,3.0,80,0.00,,---,0.01,VWS V13.01,2013-03-24 00:13:00,
2013-03-23 20:18:00,25.8,20.8,30.14,WNW,293,0.0,3.0,81,0.00,,---,0.01,VWS V13.01,2013-03-24 00:18:00,
2013-03-23 20:23:00,25.1,20.4,30.13,WNW,292,0.0,3.0,82,0.00,,---,0.01,VWS V13.01,2013-03-24 00:23:00,
2013-03-23 20:28:00,24.7,20.0,30.14,WNW,293,0.0,3.0,82,0.00,,---,0.01,VWS V13.01,2013-03-24 00:28:00,
2013-03-23 20:34:00,24.8,20.7,30.14,WNW,293,2.0,3.0,84,0.00,,---,0.01,VWS V13.01,2013-03-24 00:34:00,
2013-03-23 20:39:00,25.3,21.1,30.14,WNW,293,1.0,3.0,84,0.00,,---,0.01,VWS V13.01,2013-03-24 00:39:00,
2013-03-23 20:44:00,25.4,20.7,30.14,WNW,293,2.0,4.0,82,0.00,,---,0.01,VWS V13.01,2013-03-24 00:44:00,
2013-03-23 20:50:00,24.0,19.0,30.15,WNW,293,2.0,5.0,81,0.00,,---,0.01,VWS V13.01,2013-03-24 00:50:00,
2013-03-23 20:55:00,22.7,18.6,30.15,WNW,293,2.0,5.0,84,0.00,,---,0.01,VWS V13.01,2013-03-24 00:55:00,
2013-03-23 21:01:00,23.1,19.5,30.16,WNW,293,3.0,4.0,86,0.00,,---,0.01,VWS V13.01,2013-03-24 01:01:00,
2013-03-23 21:06:00,22.7,18.9,30.16,WNW,293,1.0,4.0,85,0.00,,---,0.01,VWS V13.01,2013-03-24 01:06:00,
2013-03-23 21:11:00,22.0,18.5,30.16,WNW,293,2.0,4.0,86,0.00,,---,0.01,VWS V13.01,2013-03-24 01:11:00,
2013-03-23 21:17:00,22.5,19.5,30.16,WNW,293,4.0,4.0,88,0.00,,---,0.01,VWS V13.01,2013-03-24 01:17:00,
2013-03-23 21:22:00,21.6,17.8,30.16,WNW,292,1.0,5.0,85,0.00,,---,0.01,VWS V13.01,2013-03-24 01:22:00,
2013-03-23 21:27:00,20.2,16.4,30.16,WNW,293,2.0,5.0,85,0.00,,---,0.01,VWS V13.01,2013-03-24 01:27:00,
2013-03-23 21:32:00,19.7,16.7,30.15,WNW,292,2.0,4.0,88,0.00,,---,0.01,VWS V13.01,2013-03-24 01:32:00,
2013-03-23 21:37:00,19.9,17.2,30.15,WNW,293,0.0,4.0,89,0.00,,---,0.01,VWS V13.01,2013-03-24 01:37:00,
2013-03-23 21:43:00,19.3,16.3,30.15,WNW,292,2.0,4.0,88,0.00,,---,0.01,VWS V13.01,2013-03-24 01:43:00,
2013-03-23 21:48:00,19.4,17.0,30.15,WNW,293,0.0,4.0,90,0.00,,---,0.01,VWS V13.01,2013-03-24 01:48:00,
2013-03-23 21:54:00,19.0,16.3,30.15,WNW,292,2.0,4.0,89,0.00,,---,0.01,VWS V13.01,2013-03-24 01:54:00,
2013-03-23 21:59:00,19.5,17.3,30.15,WNW,292,4.0,5.0,91,0.00,,---,0.01,VWS V13.01,2013-03-24 01:59:00,
2013-03-23 22:04:00,19.7,17.5,30.15,WNW,293,0.0,5.0,91,0.00,,---,0.01,VWS V13.01,2013-03-24 02:04:00,
2013-03-23 22:09:00,19.0,16.6,30.15,WNW,292,4.0,5.0,90,0.00,,---,0.01,VWS V13.01,2013-03-24 02:09:00,
2013-03-23 22:15:00,19.1,16.9,30.15,WNW,293,1.0,5.0,91,0.00,,---,0.01,VWS V13.01,2013-03-24 02:15:00,
2013-03-23 22:20:00,18.8,16.6,30.15,WNW,293,1.0,5.0,91,0.00,,---,0.01,VWS V13.01,2013-03-24 02:20:00,
2013-03-23 22:25:00,19.0,16.8,30.14,WNW,292,0.0,5.0,91,0.00,,---,0.01,VWS V13.01,2013-03-24 02:25:00,
2013-03-23 22:30:00,19.0,16.8,30.14,WNW,293,2.0,2.0,91,0.00,,---,0.01,VWS V13.01,2013-03-24 02:30:00,
2013-03-23 22:36:00,19.0,17.1,30.14,WNW,293,5.0,6.0,92,0.00,,---,0.01,VWS V13.01,2013-03-24 02:36:00,
2013-03-23 22:41:00,18.8,16.6,30.14,WNW,292,4.0,6.0,91,0.00,,---,0.01,VWS V13.01,2013-03-24 02:41:00,
2013-03-23 22:46:00,17.9,15.7,30.15,WNW,293,2.0,6.0,91,0.00,,---,0.01,VWS V13.01,2013-03-24 02:46:00,
2013-03-23 22:52:00,17.0,14.8,30.15,WNW,292,4.0,6.0,91,0.00,,---,0.01,VWS V13.01,2013-03-24 02:52:00,
2013-03-23 22:57:00,17.0,14.8,30.15,WNW,293,4.0,6.0,91,0.00,,---,0.01,VWS V13.01,2013-03-24 02:57:00,
2013-03-23 23:03:00,18.0,16.1,30.16,WNW,293,3.0,4.0,92,0.00,,---,0.01,VWS V13.01,2013-03-24 03:03:00,
2013-03-23 23:08:00,18.7,17.0,30.15,WNW,293,0.0,4.0,93,0.00,,---,0.01,VWS V13.01,2013-03-24 03:08:00,
2013-03-23 23:13:00,19.4,17.7,30.15,WNW,293,0.0,4.0,93,0.00,,---,0.01,VWS V13.01,2013-03-24 03:13:00,
2013-03-23 23:18:00,19.0,17.1,30.15,WNW,293,0.0,4.0,92,0.00,,---,0.01,VWS V13.01,2013-03-24 03:18:00,
2013-03-23 23:24:00,17.6,15.4,30.15,WNW,293,0.0,4.0,91,0.00,,---,0.01,VWS V13.01,2013-03-24 03:24:00,
2013-03-23 23:29:00,16.5,14.3,30.15,WNW,293,0.0,4.0,91,0.00,,---,0.01,VWS V13.01,2013-03-24 03:29:00,
2013-03-23 23:34:00,16.0,13.8,30.15,WNW,292,0.0,0.0,91,0.00,,---,0.01,VWS V13.01,2013-03-24 03:34:00,
2013-03-23 23:39:00,15.5,13.4,30.15,WNW,293,0.0,0.0,91,0.00,,---,0.01,VWS V13.01,2013-03-24 03:39:00,
2013-03-23 23:44:00,15.0,12.9,30.15,WNW,293,1.0,2.0,91,0.00,,---,0.01,VWS V13.01,2013-03-24 03:44:00,
2013-03-23 23:50:00,14.9,12.8,30.16,WNW,293,0.0,2.0,91,0.00,,---,0.01,VWS V13.01,2013-03-24 03:50:00,
2013-03-23 23:55:00,15.5,13.6,30.15,WNW,292,1.0,2.0,92,0.00,,---,0.01,VWS V13.01,2013-03-24 03:55:00,